ONEWEB-0055, 45443

Orbit data source: Space-Track

ONEWEB-0055, 45443 is a payload satellite owned by One Web (UK) in LEO that was launched on Sat, 21 Mar 2020 UTC via a SOYUZ-2-1B launch vehicle from the Tyuratam Missile And Space Complex (TTMTR). Payload-class satellites include a variety of spacecraft equipped with specific instruments for various scientific and technological missions. These include communications satellites like Starlink; space stations such as the ISS; scientific satellites like the Hubble; Earth observation satellites from companies like Planet Labs, Umbra, and HawkEye 360; GPS; miniature CubeSats for education and research; and military/defense satellites.

Loading next visibility...
Identifier
45443, 2020-020V
Orbit
LEO
Country
Flag of UKUK
Related business
Manufacturer
One Web
Mission
Operational Commercial Communications
Bus & Motor
ARROW, Unknown motor
Mass
148 kg wet, ~140 kg dry
Launch date (UTC)
2020-03-21 (6 years ago)
Launch vehicle
SOYUZ-2-1B
Launch site
Tyuratam Missile And Space Complex (TTMTR)
Object type
Payload
Rocket body
Debris
Shape & HBR
Trap Box + 2 Pan, 6.7 m
Radar Cross Section
3.464 m², Medium (>0.1 m² and < 1m²)

Expand to show TLE details & history
Last TLE update: 20 hours ago

TLE from 20 hours ago
0 ONEWEB-0055
1 45443U 20020V   25286.66318947 -.00000463  00000-0 -13421-2 0  9999
2 45443  87.8819  70.1584 0001665  97.3605 262.7712 13.11417256270306
Epoch: 2025-10-13T15:54Z
TLE epoch observation values (Epoch: 2025-10-13T15:54:59.570Z)
Latitude
-0.00003°
Longitude
168.94745°
Altitude
1,220.73 km
Speed
7.244 km/s
True Right ascension
04h 40m 38s
True Declination
0° 00' 00"
Sunlit
Object was in full shadow at epoch
Visualization orbit readout
Latitude
Unknown
Longitude
Unknown
Altitude
Unknown
Speed
Unknown
Apparent Right ascension
Unknown
Apparent Declination
Unknown
Sunlit
N/A
Visualization observer readout
Local Sidereal Time
06:14:10
Azimuth
Unknown
Elevation
Unknown
Doppler factor
Unknown
Orbital elements
Apogee altitude
1,216.064 km
Perigee altitude
1,213.536 km
Semi-major axis
7,592.937 km
Eccentricity
0.00017
Inclination
87.8819°
RAAN
70.1584°
Arg. of periapsis
97.3605°
True anomaly
262.75227°
Mean anomaly
262.7712°
Eccentric anomaly
262.76174°
Mean motion
3.28041 °/min
Orbital period
109.74 mins
BSTAR
-0.0013421
Loading maneuver chart data...
Computing Atmospheric mass density...
Loading historical data...
Loading historical data...
Loading historical data...
Loading historical data...
Loading historical data...
Loading historical data...
Loading historical data...

Documentation

Showing up to 5 results
|